Regional Weather Roundup
Issued by NWS

Home | Current Version | Previous Version | Text Only | Print | Product List | Glossary On
Versions: 1 2 3 4 5 6 7 8 9 10 11 12 13 14 15 16 17 18 19 20 21 22 23 24 25 26 27 28
000
ASUS42 KTBW 200016
RWRFL
FLORIDA REGIONAL WEATHER ROUNDUP
NATIONAL WEATHER SERVICE TAMPA BAY RUSKIN FL
700 PM EST SUN FEB 19 2017

NOTE: "FAIR" INDICATES FEW OR NO CLOUDS BELOW 12,000 FEET WITH NO
SIGNIFICANT WEATHER AND/OR OBSTRUCTIONS TO VISIBILITY.

FLZ001>010-012>015-112-114-115-200100-
PANHANDLE FLORIDA

CITY           SKY/WX    TMP DP  RH WIND       PRES   REMARKS
PENSACOLA      CLEAR     69  58  67 SW7       30.07R
PENSACOLA NAS  PTCLDY    65  61  87 S7        30.07R
MILTON NAS     LGT RAIN  68  57  68 CALM      30.06
CRESTVIEW      CLEAR     67  58  72 CALM      30.07R
DUKE FIELD     FAIR      69  60  71 S6        30.05R
VALPARAISO     PTCLDY    67  62  83 SW5       30.07R
MARY ESTHER    CLEAR     67  54  63 SW6       30.05R
PANAMA CITY    FAIR      68  60  75 CALM      30.05R
TYNDALL AFB    CLEAR     67  64  89 W3        30.06R
APALACHICOLA   PTCLDY    67  66  97 S6        30.07R

STATION/POSITION SKY/WX   TEMP    WIND        PRES    WAVE   SWELL
                          AIR SEA DIR/SP/G            HT/PER HT/PER
                          (F)     (DEG/KT/KT) (MB)    (FT/S) (FT/S)
30.1N   87.6W              68 69  190/ 10/ 12 1018.2R   2/ 6   2/ 6
28.8N   86.0W              70 71              1019.0R   2/ 6   2/ 6
PANAMA CITY BEAC           69     230/  5/  5 1018.1R
TOWER C                    66     220/  7/  8 1019.0R
28.5N   84.5W              68 71  130/  2/  2 1018.4R   2/ 6   2/ 6

$$
FLZ011-016>038-118-127-128-134-139-239-200100-
NORTH FLORIDA

CITY           SKY/WX    TMP DP  RH WIND       PRES   REMARKS
MARIANNA       CLEAR     73  56  54 CALM      30.05R
TALLAHASSEE    MOCLDY    73  56  54 NW3       30.06R
PERRY          MOCLDY    71  59  66 SW3       30.07R
CROSS CITY     CLEAR     68  57  68 W7        30.06R
LAKE CITY      FAIR      64  57  77 CALM      30.06R
GAINESVILLE    CLEAR     67  52  58 NW3       30.05R
WILLISTON      CLEAR     70  54  56 S5        30.06R
PALATKA        FAIR      68  59  73 SE6       30.06R
MAYPORT NAS    CLEAR     64  60  87 S5        30.05R
JACKSONVILLE   PTCLDY    66  58  75 E5        30.05R
FERNANDINA BEA FAIR      66  63  88 CALM      30.04S
ST AUGUSTINE   CLEAR     65  60  84 SE5       30.07R
PALM COAST     CLEAR     64  61  88 CALM      30.06

STATION/POSITION SKY/WX   TEMP    WIND        PRES    WAVE   SWELL
                          AIR SEA DIR/SP/G            HT/PER HT/PER
                          (F)     (DEG/KT/KT) (MB)    (FT/S) (FT/S)
SHELL POINT      NOT AVBL
KEATON BEACH               66     270/  2/  3 1017.8R
CEDAR KEY                  66     250/  6/  7 1018.3R
FERNANDINA                 65 66  140/  4/  5 1018.2R
30.7N   81.3W                 64                N/A     1
MAYPORT                    65 65  170/  3/  5 1018.0R
31.4N   80.9W              63 62  200/  6/  6 1017.4R   1/10
ST AUGUSTINE               66 68  150/  6/  7 1018.7R

$$
FLZ040-043>046-052-053-057-058-063-144-200100-
INTERIOR CENTRAL FLORIDA

CITY           SKY/WX    TMP DP  RH WIND       PRES   REMARKS
OCALA          CLEAR     72  48  43 CALM      30.06R
THE VILLAGES     N/A     72  57  60 CALM      29.95S
LEESBURG       CLEAR     70  57  63 CALM      30.05S
SANFORD        CLEAR     68  59  73 E7        30.05R
ORLANDO EXEC   PTCLDY    71  59  65 E9        30.06R
ORLANDO INTL   PTCLDY    71  59  65 NE6       30.06R
KISSIMMEE      CLEAR     73  55  53 N3        30.06R
WINTER HAVEN   CLEAR     73  54  51 NE5       30.06R
LAKELAND       CLEAR     73  54  49 W5        30.05R
BARTOW         FAIR      73  55  53 CALM      30.05S
OKEECHOBEE     CLEAR     70  63  78 E5        30.06R

$$
FLZ041-047-054-059-064-141-147-200100-
EAST CENTRAL FLORIDA

CITY           SKY/WX    TMP DP  RH WIND       PRES   REMARKS
ORMOND BEACH   CLEAR     66  61  82 CALM      30.06R
DAYTONA BEACH  CLEAR     65  61  87 CALM      30.06S
DELAND         CLEAR     66  59  77 E6        30.06R
NEW SMYRNA BEA CLEAR     66  63  88 E12       30.06S
JFK SPACE CTR  CLEAR     65  61  85 CALM      30.05R
TITUSVILLE     CLEAR     66  64  94 VRB6      30.07R
CAPE CANAVERAL CLEAR     67  60  80 NE5       30.05R
PATRICK AFB    CLEAR     68  63  83 NE9       30.05R
MELBOURNE      CLEAR     68  44  42 NE6       30.06R
VERO BEACH     CLEAR     68  62  81 NE6       30.06R
FT PIERCE      CLEAR     67  62  84 CALM      30.05S
STUART         CLEAR     73  66  78 N6        30.06

STATION/POSITION SKY/WX   TEMP    WIND        PRES    WAVE   SWELL
                          AIR SEA DIR/SP/G            HT/PER HT/PER
                          (F)     (DEG/KT/KT) (MB)    (FT/S) (FT/S)
TRIDENT PIER               66 71   20/  3/  4 1018.9R
28.4N   80.5W                 71                N/A     2/ 3
27.5N   80.2W                 72                N/A     3/ 5

$$
FLZ050-056-061-142-242-148-248-149-249-151-251-155-255-
160-260-200100-
WEST CENTRAL FLORIDA

CITY           SKY/WX    TMP DP  RH WIND       PRES   REMARKS
CRYSTAL RIVER  FAIR      64  63  94 W3        30.07R
INVERNESS      FAIR      68  64  88 CALM      30.06R
BROOKSVILLE    CLEAR     64  60  87 W7        30.07S
CLEARWATER AIR CLOUDY    63  63 100 W5        30.07R FOG
ST PETE CLEARW CLEAR     65  61  87 W7        30.07R
TAMPA INTL     CLEAR     70  60  70 W8        30.07R
TAMPA EXEC     CLEAR     70  54  56 CALM      30.06S
PLANT CITY     CLEAR     75  54  46 W5        30.07S
MACDILL AFB    CLEAR     69  61  75 NW5       30.06R
PETER O KNIGHT CLEAR     72  64  78 NW3       30.06S
ST PETERSBURG  CLEAR     71  58  63 NW7       30.05R
SARASOTA         N/A     69  61  75 N7        30.05R
VENICE         FAIR      70  66  88 NW8       30.06S

STATION/POSITION SKY/WX   TEMP    WIND        PRES    WAVE   SWELL
                          AIR SEA DIR/SP/G            HT/PER HT/PER
                          (F)     (DEG/KT/KT) (MB)    (FT/S) (FT/S)
27.3N   84.2W                 72                N/A     2/ 6
CLEARWATER BEACH           63 75  300/  5/  5 1018.6R
MIDDLE TAMPA BAY           69     320/ 11/ 12 1018.2R
VENICE                     70 71  330/ 11/ 12 1017.4R

$$
FLZ066-069-070-075>078-162-262-165-265-200100-
SOUTHWEST FLORIDA AND KEYS

CITY           SKY/WX    TMP DP  RH WIND       PRES   REMARKS
PUNTA GORDA    CLEAR     73  63  70 W8        30.06R
FT MYERS       CLEAR     74  68  81 W8        30.04R
SOUTHWEST INTL CLEAR     75  66  73 W7        30.05R
NAPLES         CLEAR     73  69  87 NW6       30.05R
MARCO ISLAND   CLEAR     73  66  78 NW6       30.05S
MARATHON       CLEAR     77  73  87 NW7       30.04R
KEY WEST NAS   PTCLDY    75  69  81 NW6       30.04S
KEY WEST INTL  CLEAR     78  74  87 NW6       30.04S

STATION/POSITION SKY/WX   TEMP    WIND        PRES    WAVE   SWELL
                          AIR SEA DIR/SP/G            HT/PER HT/PER
                          (F)     (DEG/KT/KT) (MB)    (FT/S) (FT/S)
NAPLES                        76              1017.6R
26.0N   85.6W              75 75   60/ 10/ 10 1017.8R   2/ 6   2/ 6
DRY TORTUGAS               76      40/  3/  3 1017.3R
SAND KEY                   76     320/  5/  6 1017.8R
LONG KEY                   76 78  310/ 12/ 13 1017.1R

$$
FLZ067-068-071>074-168-172>174-200100-
SOUTHEAST FLORIDA

CITY           SKY/WX    TMP DP  RH WIND       PRES   REMARKS
W PALM BEACH   PTCLDY    74  65  73 N9        30.04R
BOCA RATON     CLEAR     73  68  83 NE13G18   30.04
FT LAUDER-EXEC CLEAR     76  66  71 NE8       30.03R
FT LAUDERDALE  PTCLDY    75  69  81 NE10      30.02R
POMPANO BEACH  CLEAR     76  68  76 NE14      30.03R
PEMBROKE PINES PTCLDY    76  69  79 NE13      30.04R
OPA LOCKA      PTCLDY    78  67  68 NE14      30.03R
MIAMI          PTCLDY    77  68  73 NE7       30.02R
WEST KENDALL   CLEAR     76  65  68 W12       30.02R
HOMESTEAD      CLEAR     78  68  71 W9        30.01R

STATION/POSITION SKY/WX   TEMP    WIND        PRES    WAVE   SWELL
                          AIR SEA DIR/SP/G            HT/PER HT/PER
                          (F)     (DEG/KT/KT) (MB)    (FT/S) (FT/S)
PORT EVERGLADES            76      30/  8/ 15 1016.8R
VIRGINIA KEY               79 81  340/  4/  6 1016.7R
LAKE WORTH                 74      20/ 15/ 18 1017.8R
FOWEY ROCKS                79 75  290/ 17/ 17 1017.0R

$$





USA.gov is the U.S. government's official web portal to all federal, state and local government web resources and services.